Regional Weather Roundup
Issued by NWS Little Rock, AR

Home | Current Version | Previous Version | Text Only | Print | Product List | Glossary On
Versions: 1 2 3 4 5 6 7 8 9 10 11 12 13 14 15 16 17 18 19 20 21 22 23 24 25 26 27 28 29 30 31 32 33 34 35 36 37 38 39 40 41 42 43 44 45 46 47 48 49 50
000
ASUS44 KLZK 271905
RWRLZK

WEATHER ROUNDUP FOR ARKANSAS
NATIONAL WEATHER SERVICE LITTLE ROCK AR
100 PM CST THU NOV 27 2014

NOTE: "FAIR" INDICATES FEW OR NO CLOUDS BELOW 12,000 FEET WITH NO
SIGNIFICANT WEATHER AND/OR OBSTRUCTIONS TO VISIBILITY.

ARZ001-003-010-029-272000-
NORTHWEST ARKANSAS

CITY           SKY/WX    TMP DP  RH WIND       PRES   REMARKS
FAYETTEVILLE   MOSUNNY   41  26  55 CALM      30.49F
FORT SMITH     SUNNY     44  24  45 W5        30.52F
HARRISON       SUNNY     42  26  53 VRB7      30.46F
BENTONVILLE    MOSUNNY   36  25  64 CALM      30.50F
ROGERS         MOSUNNY   38  25  59 S3        30.49F
SILOAM SPGS    MOSUNNY   39  23  52 CALM      30.50F
HIGHFILL       MOSUNNY   39  26  59 NE3       30.49F
SPRINGDALE     MOSUNNY   37  25  60 CALM      30.51F
$$

ARZ004-005-016-272000-
NORTH CENTRAL ARKANSAS

CITY           SKY/WX    TMP DP  RH WIND       PRES   REMARKS
BATESVILLE     SUNNY     45  27  49 NW5       30.49F
FLIPPIN        SUNNY     45  23  42 W5        30.48F
MTN HOME       SUNNY     41  25  53 VRB6      30.47F
$$

ARZ040-041-272000-
WEST CENTRAL ARKANSAS

CITY           SKY/WX    TMP DP  RH WIND       PRES   REMARKS
MENA           SUNNY     50  27  40 SE5       30.48F
MOUNT IDA      SUNNY     47  26  44 SW3       30.47F
$$

ARZ009-017-025-026-028-272000-
NORTHEAST ARKANSAS

CITY           SKY/WX    TMP DP  RH WIND       PRES   REMARKS
CORNING        FAIR      43  28  56 N8        30.49F
JONESBORO      PTSUNNY   43  30  60 CALM      30.49F
NEWPORT        SUNNY     46  28  49 N3        30.51F
WALNUT RIDGE   SUNNY     43  27  52 NW5       30.49F
BLYTHEVILLE    CLOUDY    51  32  48 N12       30.49F
$$

ARZ022-023-033-042-044-272000-
CENTRAL ARKANSAS

CITY           SKY/WX    TMP DP  RH WIND       PRES   REMARKS
LITTLE ROCK    MOSUNNY   47  24  40 NW7       30.51F
N LITTLE ROCK  MOSUNNY   45  28  51 S2        30.51F
JACKSONVILLE   SUNNY     47  27  44 W2        30.50F
SEARCY         SUNNY     47  26  44 NW5       30.51F
HOT SPRINGS    SUNNY     47  27  45 VRB6      30.50F
RUSSELLVILLE   SUNNY     45  26  47 VRB5      30.50F
CLINTON        FAIR      46  27  46 CALM      30.50F
$$

ARZ036-272000-
EAST ARKANSAS

CITY           SKY/WX    TMP DP  RH WIND       PRES   REMARKS
WEST MEMPHIS   MOSUNNY   44  30  57 N10       30.48F
$$

ARZ050-053-066-070-073-272000-
SOUTHWEST ARKANSAS

CITY           SKY/WX    TMP DP  RH WIND       PRES   REMARKS
ARKADELPHIA    FAIR      47  30  51 CALM      30.52F
CAMDEN         SUNNY     52  27  37 MISG      30.51F
TEXARKANA      SUNNY     50  26  39 VRB3      30.49F
EL DORADO      SUNNY     51  29  42 NE6       30.50F
DE QUEEN       SUNNY     50  26  39 CALM      30.48F
$$

ARZ056-057-069-272000-
SOUTHEAST ARKANSAS

CITY           SKY/WX    TMP DP  RH WIND       PRES   REMARKS
PINE BLUFF     LGT RAIN  44  26  49 N5        30.52F
STUTTGART      SUNNY     45  27  49 N5        30.52F
MONTICELLO     SUNNY     48  28  46 CALM      30.50F

$$





USA.gov is the U.S. government's official web portal to all federal, state and local government web resources and services.